Flag for France Weather past 2 weeks in Nancy, France

Now
48 °F

Clear.


Feels Like: 46 °F
Forecast: 44 / 68 °F
Wind: 5 mph from Northeast

Location: Nancy / Ochey

Current Time: Apr 21, 2015 at 4:11:41 AM

Latest Report: Apr 21, 2015 at 3:30 AM


Visibility: N/A

Pressure: 30.30 "Hg

Humidity: 58%

Dew point: 34 °F

Location of NancyLocation

Historic Weather in Nancy — Graph

°F

Nancy temperature yesterday

Maximum temperature yesterday: 66 °F (at 3:00 PM)
Minimum temperature yesterday: 41 °F (at 6:00 AM)
Average temperature yesterday: 55 °F

Past Weeks' High & Low Weather Summary

 TemperatureHumidityPressure
High77 °F (Apr 15, 2:30 PM)100% (Apr 12, 3:00 AM)30.60 "Hg (Apr 12, 3:00 AM)
Low28 °F (Apr 6, 6:00 AM)16% (Apr 10, 3:30 PM)29.86 "Hg (Apr 17, 5:30 AM)
Average53 °F56%30.24 "Hg
* Reported Apr 6 3:00 AM — Apr 21 3:00 AM, Nancy, Weather by CustomWeather, © 2015

Note: Actual official high and low records may vary slightly from our data, if they occured in-between our weather recording intervals... More about our weather records

Advertising

Nancy weather history for previous 24 hours

 ConditionsComfort  
Time TempWeatherWind HumidityBarometerVisibility
3:00 AM
Tue, Apr 21
50 °FClear.3 mph54%30.30 "HgN/A
2:30 AM48 °FClear.3 mph58%30.30 "HgN/A
2:00 AM46 °FClear.5 mph62%30.30 "HgN/A
1:30 AM50 °FClear.5 mph54%30.30 "HgN/A
1:00 AM52 °FClear.5 mph50%30.30 "HgN/A
12:30 AM52 °FClear.3 mph50%30.30 "HgN/A
12:00 AM52 °FClear.5 mph50%30.30 "HgN/A
11:30 PM
Mon, Apr 20
54 °FClear.6 mph47%30.30 "HgN/A
11:00 PM55 °FClear.5 mph44%30.30 "HgN/A
10:30 PM57 °FClear.6 mph39%30.30 "HgN/A
10:00 PM57 °FClear.5 mph36%30.30 "HgN/A
9:30 PM59 °FClear.8 mph34%30.27 "HgN/A
9:00 PM59 °FClear.6 mph34%30.27 "HgN/A
8:30 PM61 °FClear.6 mph31%30.27 "HgN/A
8:00 PM63 °FClear.9 mph27%30.24 "HgN/A
7:30 PM64 °FClear.12 mph28%30.24 "HgN/A
7:00 PM66 °FClear.12 mph24%30.24 "HgN/A
6:30 PM66 °FClear.12 mph22%30.24 "HgN/A
6:00 PM66 °FClear.10 mph26%30.24 "HgN/A
5:30 PM66 °FClear.10 mph28%30.24 "HgN/A
5:00 PM66 °FClear.9 mph28%30.24 "HgN/A
4:30 PM66 °FClear.12 mph28%30.24 "HgN/A
4:00 PM66 °FClear.10 mph30%30.24 "HgN/A
3:30 PM66 °FClear.9 mph30%30.24 "HgN/A
3:00 PM66 °FClear.8 mph32%30.24 "HgN/A
2:30 PM64 °FClear.10 mph28%30.24 "HgN/A
2:00 PM64 °FClear.14 mph28%30.24 "HgN/A
1:30 PM64 °FClear.12 mph28%30.24 "HgN/A
1:00 PM61 °FClear.12 mph34%30.27 "HgN/A
12:30 PM61 °FClear.12 mph34%30.27 "HgN/A
12:00 PM61 °FClear.9 mph34%30.27 "HgN/A
11:30 AM59 °FClear.8 mph36%30.27 "HgN/A
11:00 AM57 °FClear.12 mph41%30.27 "HgN/A
10:30 AM57 °FClear.10 mph41%30.24 "HgN/A
10:00 AM55 °FClear.7 mph41%30.24 "HgN/A
9:30 AM54 °FClear.7 mph44%30.24 "HgN/A
9:00 AM52 °FClear.7 mph50%30.24 "HgN/A
8:30 AM46 °FClear.3 mph62%30.21 "HgN/A
8:00 AM43 °FClear.No wind66%30.21 "HgN/A
7:30 AM43 °FClear.2 mph61%30.21 "HgN/A
7:00 AM41 °FClear.2 mph61%30.18 "HgN/A
6:30 AM43 °FClear.No wind57%30.18 "HgN/A
6:00 AM41 °FClear.3 mph61%30.18 "HgN/A
5:30 AM45 °FClear.1 mph53%30.18 "HgN/A
5:00 AM46 °FClear.No wind50%30.15 "HgN/A
4:30 AM46 °FClear.No wind50%30.15 "HgN/A
4:00 AM46 °FClear.2 mph50%30.15 "HgN/A
Weather by CustomWeather, © 2015

See weather overviewHow to use our weather pages